SL-24 PLAT

Satellite information

Favourite Embed

Satellite Type and Status

DEBRISIN ORBIT

Key statistics

Satellite SL-24 PLAT at a glance.

Uptime

4147

Days in orbit

Revolutions

≈ 15.1

Per day

Orbit

SSO

Sun Synchronous Orbit

Inclination

98.1

Latest

Satellite identification and parameters

Extended collection of information and parameters for SL-24 PLAT.

Object identification

Identified? True

Debris? False

Object name: SL-24 PLAT

International designator: 2014-033AR

Object number (NORAD): 40049

Object ID (CCSDS): 40049

Country: COMMONWEALTH OF INDEPENDENT STATES (CIS)

Current information (Y/N): Y

RCS size: LARGE

Orbital parameters

Period: 95.567 minutes

Inclination: 98.0848 deg

SMA: 6924.123 km

Apoapsis: 550.109 km

Periapsis: 541.867 km

RAAN: 279.8577 deg

Eccentricy: 0.00059518

Argument of periapsis: 338.9013 deg

Mean anomaly: 21.1967 deg

Mean motion: 15.06799886 rev/day

Mean motion (dot): 0.00008233 rev/day2

B* drag term: 0.00055690053 1/REarth

Two-line elements (TLE)

Creation date: Oct. 26, 2025, 2:54 a.m.

Reference frame: TEME

Reference center: EARTH

Epoch: Oct. 25, 2025, 10:07 p.m. UTC

TLE line 0: 0 SL-24 PLAT

TLE line 1: 1 40049U 14033AR 25298.92187267 .00008233 00000-0 55690-3 0 9990

TLE line 2: 2 40049 98.0848 279.8577 0005952 338.9013 21.1967 15.06799886616894

Live tracking on map

Real-time ground track for satellite SL-24 PLAT.

In-orbit conjunctions

A list of the most updated potential collisions computed for object SL-24 PLAT.

Target Orbit TCA Probability of collision Miss distance Type
FENGYUN 1C DEB SSO 2025-09-20 07:13:36 0.000119713 125.0 (m) DEBRIS
SCOUT X-4 DEB LEO 2025-07-23 13:10:45 0.000435101 275.0 (m) DEBRIS
COSMOS 2251 DEB LEO 2025-02-26 10:05:19 0.0002623065 649.0 (m) DEBRIS
COSMOS 2251 DEB LEO 2025-02-26 08:29:27 0.0007527223 969.0 (m) DEBRIS
ATLAS 2AS CENTAUR R/B MEO 2024-06-17 17:00:32 0.0001049621 831.0 (m) ROCKET BODY

Associated space launch

SL-24 PLAT was lifted into orbit during the mission ‘Dnepr 1 | Multipayload, 37 satellites.’, on board a Dnepr space rocket.

The launch took place on June 19, 2014, 7:11 p.m. from 370/13.

For more information about the launch, click the button.

Launch to space Dnepr 1 | Multipayload, 37 satellites.
Dnepr 1 | Multipayload, 37 satellites.

Agency: N/A

Status: Launch Successful

Launch date: June 19, 2014, 7:11 p.m. UTC

Rocket: Dnepr

Launch pad: 370/13

Location: Dombarovskiy, Russian Federation

...

Latest news about this satellite

There are no fresh news available about this satellite. Check back as we update our databases every day.


Newsletter sign-up

Weekly statistics, charts and insights to help you stay on top of the space industry.